Location: B?jaj?g
(11.7167°N, 92.6667°E)
Time: 03:56:43
(UTC+00:00)

ASTRO E2 - Pass Details

Date: 18 September 2020
Orbit: 509 x 515 km, 31.4° (Epoch: 19 October)

Event Time Altitude Azimuth Distance (km) Brightness Sun altitude
Rises 12:06:54 0° 316° (NW) 2,598 7.1 -5.5°
Reaches altitude 10° 12:09:25 10° 330° (NNW) 1,714 5.8 -6.1°
Maximum altitude 12:12:42 25° 26° (NNE) 1,061 4.1 -6.9°
Drops below altitude 10° 12:15:59 10° 83° (E) 1,718 4.7 -7.7°
Enters shadow 12:16:08 - 84° (E) 1,768 4.7 -7.7°
